Погода в Чаршанге

Погода в Чаршанге : погода сейчас, прогноз погоды и архив. Всё, что Вы хотите узнать о погоде в Чаршанге!

Хотите узнать прогноз погоды в Чаршанге? Тогда Вам сюда: Погода в Чаршанге

Поиск расширенной информации на нашем сайте:

Другие новости

Новости СМИ2

Главная страница сайта

Новости сайта

03.07.2017

Напоминаем, что на нашем специализированном сайте Метеоцентр.Азия вы можете получить высокодетализированные автоматические прогнозы погоды по пунктам России, СНГ и мира в авиационном формате (включающие направление и скорость ветра, видимость, явления погоды, количество и форму облачности, нижнюю и верхнюю границу облачности).


Погода в Чаршанге - сегодня

Время (UTC), дата Ветер
(°,м/с) 
Видим.   Явления Облачность Т
(°С)
Тd
(°С)
f(%) Тe
(°С)
Pmin
(гПа)
dP
(гПа)
Po
(мм)
O2
(г/м3)
Тmin Tmax R s Состояние
почвы
12 17.02.18 320 (СЗ) 10 км    3/0 верхняя 
[Ci fib]
+12.6 +3 52 +14  1026.2  -2.7  746  287           
15 17.02.18 340 (С) 10 км    3/0 верхняя 
[Ci fib]
+10.2 +4.3 67 +11  1025.6  -0.9  745  289    +13.1       
18 17.02.18 тихо ()   10 км    3/0 верхняя 
[Ci fib]
+8.6 +3 68 +9  1025.1  -0.6  745  290    +13.1       
21 17.02.18 тихо ()   10 км    3/0 верхняя 
[Ci fib]
+7 +4.6 85 +7  1024.9  -0.4  744  292           
00 18.02.18 тихо ()   10 км    3/0 верхняя 
[Ci fib]
+7.7 +3.2 73 +8  1023.9  -0.8  744  291           
03 18.02.18 тихо ()   10 км    5/0 верхняя 
[Ci fib]
+6.6 +2.2 73 +7  1024.4  0.2             
06 18.02.18 тихо ()   10 км    3/0 верхняя 
[Ci fib]
+12.2 +4 57 +12  1023.9  0.2  744  286  +6.1         
09 18.02.18 110 (В) 10 км    3/0 верхняя 
[Ci fib]
+16.3 +2.3 39 +18  1020.6  -2.8  742  282           
12 18.02.18 100 (В) 10 км    3/0 верхняя 
[Ci fib]
+17.8 -0.7 28 +18  1019.5  -1  741  280           
15 18.02.18 тихо ()   10 км    ясно 
+12.8 +3.4 53 +13  1019.4  -1.4  740  284    +18       
18 18.02.18 тихо ()   10 км    ясно 
+9.2 +4.1 70 +9  1017.8  -1.1  739  287    +18       
21 18.02.18 тихо ()   10 км    ясно 
+7.2 +2.7 73 +7  1015.8  -2.2  738  289           
00 19.02.18 030 (СВ) 10 км    ясно 
+6 +3.1 82 +7  1013.3  -2.4  736  290           
03 19.02.18 270 (З) 10 км    6/0 средняя 
[Ac trans]
+8.2 +1.1 61 +8  1013.3  0.2             
06 19.02.18 090 (В) 10 км    6/0 средняя 
[Ac trans]
+16.2 +3.6 43 +17  1011.7  -0.7  735  279  +6         
09 19.02.18 140 (ЮВ) 10 км    6/0 средняя 
[Ac trans]
+23.2 -3.3 17 +23  1009  -2  734  273           
12 19.02.18 140 (ЮВ) 10 км    5/0 верхняя 
[Ci ing]
+24.5 -9 10 +25  1007.5  -1.2  733  272           
15 19.02.18 160 (Ю) 10 км    6/0 верхняя 
[Cs]
+18.3 +0.6 30 +19  1009.2  0.9  734  277    +25.1       
18 19.02.18 130 (ЮВ) 10 км    6/0 верхняя 
[Cs]
+17.2 +3 39 +17  1008.3  -0.9  733  277    +25.1       
21 19.02.18 320 (СЗ) 10 км  в посл. час крупа  6/0 
+14.1 +2.9 47 +14    2.9             
00 20.02.18 270 (З) 10 км    6/0 верхняя 
[Cs]
+9 +0.9 57 +8  1013.5  1.3  736  287           
03 20.02.18 тихо ()   10 км    ясно 
-3.8 -5.3 89 -4  1035.1  1.2             
06 20.02.18 320 (СЗ) 10 км    8/0 верхняя 
[Cs]
+3 -4.2 59 +2  1029.9  2.1  748  298  -0.6         
09 20.02.18 300 (СЗ) 4000 м  слаб. дождь  10/10 300 м 
[Ns]
+6 +3.6 85 +4  1019.3  0.9  740  291           
12 20.02.18 270 (З) 10 км  в посл. час дождь  10/10 600 м 
[Sc]
+5.8 +3.9 88 +5  1021.2  1.7  741  292           
Время (UTC), дата Ветер
(°,м/с) 
Видим.   Явления Облачность Т
(°С)
Тd
(°С)
f(%) Тe
(°С)
Pmin
(гПа)
dP
(гПа)
Po
(мм)
O2
(г/м3)
Тmin Tmax R s Состояние
почвы

Для получения пояснительной информации подведите курсор к названию столбца.

ПОГОДА в Чаршанге - архив

Всё, что Вы хотите узнать о погоде в Чаршанге - удобно и подробно!

Выберите нужную дату (начиная с 1 января 2015* года) и нажмите кнопку "Найти".
Будут отображены архивные сводки погоды по пункту Чаршанга, начиная с указанной даты.


Отображать данные в формате CSV (для использования в таблицах Excel)


Внимание! Наш архив погоды предназначен исключительно для личного некоммерческого использования в познавательных целях. Если Вам необходимы официальные справки о состоянии погоды (для производственных, юридических, коммерческих и т.п. целей), обращайтесь в органы Росгидромета.

*Примечание: данная дата относится к архиву по метеостанциям СССР (Россия, СНГ, Балтия).
Архив по метеостанциям Зарубежной Европы и Азии (кроме Китая) хранится 10 дней, по другим регионам земного шара (Китай, Африка, Америка, Австралия, Океания) - 1 день.

Чаршанга - район местоположения метеостанции


Название, широта, долгота, высота метеостанции:
Чаршанга 37.5°ш. 66°д. 265 м над ур. моря [Туркменистан]

Дополнительная информация

В oтличие oт бoльшинства пoгoдных сайтoв мы публикуем пoдрoбную метеoинфoрмацию в детальнoм прoфессиoнальнoм фoрмате.

Характеристики температуры и влажнoсти вoздуха измеряются на высoте 2 м в тени вдали oт зданий и деревьев.
Скoрoсть ветра измеряется на высoте 10 м (на урoвне рoста челoвека скoрoсть ветра ниже в 1.5-2 раза). Если метеoстанция нахoдится в гoрoде или в лесу, тo скoрoсть ветра занижена на 2-4 м/с пo сравнению с oткрытым местoм. Скoрoсть ветра над акватoриями крупных рек и oзёр, а также на вершинах хoлмoв на 2-5 м/с выше, чем в oбычных услoвиях.
Атмoсфернoе давление в разных тoчках местнoсти мoжет значительнo oтличаться oт давления на метеoстанции, в зависимoсти oт услoвий рельефа (при пoдъёме на 10 м давление пoнижается примернo на 1 мм рт.ст.).